2022/12/24 00:00:00,68.7,-3.3
2022/12/24 00:10:00,69.2,-3.3
2022/12/24 00:20:00,69.2,-3.3
2022/12/24 00:30:00,69.6,-3.4
2022/12/24 00:40:00,69.8,-3.9
2022/12/24 00:50:00,69.2,-3.7
2022/12/24 01:00:00,68.8,-3.5
2022/12/24 01:10:00,68.6,-4.4
2022/12/24 01:20:00,68.4,-4.9
2022/12/24 01:30:00,68.1,-4.9
2022/12/24 01:40:00,67.9,-4.5
2022/12/24 01:50:00,67.6,-3.9
2022/12/24 02:00:00,67.2,-3.5
2022/12/24 02:10:00,66.9,-3.3
2022/12/24 02:20:00,67.0,-3.8
2022/12/24 02:30:00,66.7,-3.7
2022/12/24 02:40:00,66.3,-3.4
2022/12/24 02:50:00,66.7,-3.2
2022/12/24 03:00:00,66.4,-3.2
2022/12/24 03:10:00,66.1,-3.4
2022/12/24 03:20:00,66.0,-3.5
2022/12/24 03:30:00,65.8,-3.1
2022/12/24 03:40:00,65.3,-3.3
2022/12/24 03:50:00,65.1,-3.2
2022/12/24 04:00:00,64.9,-2.8
2022/12/24 04:10:00,64.7,-3.2
2022/12/24 04:20:00,64.6,-3.2
2022/12/24 04:30:00,64.3,-3.1
2022/12/24 04:40:00,64.0,-3.4
2022/12/24 04:50:00,63.9,-3.2
2022/12/24 05:00:00,63.7,-3.1
2022/12/24 05:10:00,63.5,-2.7
2022/12/24 05:20:00,63.4,-2.8
2022/12/24 05:30:00,63.2,-2.7
2022/12/24 05:40:00,62.9,-2.6
2022/12/24 05:50:00,62.6,-2.7
2022/12/24 06:00:00,62.7,-2.5
2022/12/24 06:10:00,62.7,-2.7
2022/12/24 06:20:00,62.5,-2.5
2022/12/24 06:30:00,62.4,-2.3
2022/12/24 06:40:00,62.3,-2.3
2022/12/24 06:50:00,62.8,-2.2
2022/12/24 07:00:00,63.4,-2.2
2022/12/24 07:10:00,65.0,-2.1
2022/12/24 07:20:00,66.0,-2.1
2022/12/24 07:30:00,66.8,-2.1
2022/12/24 07:40:00,67.4,-2.0
2022/12/24 07:50:00,67.8,-2.0
2022/12/24 08:00:00,68.6,-1.6
2022/12/24 08:10:00,68.9,-1.5
2022/12/24 08:20:00,68.8,-0.9
2022/12/24 08:30:00,68.6,-1.1
2022/12/24 08:40:00,68.9,-0.6
2022/12/24 08:50:00,68.5, 0.0
2022/12/24 09:00:00,68.3,-0.7
2022/12/24 09:10:00,68.4, 0.0
2022/12/24 09:20:00,65.6, 1.9
2022/12/24 09:30:00,60.5, 0.6
2022/12/24 09:40:00,60.9, 1.2
2022/12/24 09:50:00,60.8, 2.6
2022/12/24 10:00:00,60.7, 1.7
2022/12/24 10:10:00,60.6, 0.9
2022/12/24 10:20:00,60.8, 1.5
2022/12/24 10:30:00,60.6, 5.6
2022/12/24 10:40:00,60.6, 3.4
2022/12/24 10:50:00,60.7, 2.0
2022/12/24 11:00:00,60.7, 2.9
2022/12/24 11:10:00,60.4, 2.7
2022/12/24 11:20:00,60.2, 2.9
2022/12/24 11:30:00,59.9, 3.3
2022/12/24 11:40:00,59.7, 2.2
2022/12/24 11:50:00,59.5, 2.6
2022/12/24 12:00:00,59.1, 3.9
2022/12/24 12:10:00,58.6, 6.3
2022/12/24 12:20:00,58.7, 4.1
2022/12/24 12:30:00,58.5, 2.9
2022/12/24 12:40:00,58.4, 2.8
2022/12/24 12:50:00,58.3, 2.4
2022/12/24 13:00:00,57.8, 2.0
2022/12/24 13:10:00,57.6, 1.7
2022/12/24 13:20:00,57.6, 1.9
2022/12/24 13:30:00,57.4, 2.0
2022/12/24 13:40:00,57.3, 1.3
2022/12/24 13:50:00,56.8, 1.1
2022/12/24 14:00:00,56.6, 1.4
2022/12/24 14:10:00,56.6, 1.7
2022/12/24 14:20:00,56.3, 2.2
2022/12/24 14:30:00,56.1, 1.5
2022/12/24 14:40:00,56.1, 1.4
2022/12/24 14:50:00,55.9, 1.4
2022/12/24 15:00:00,55.6, 1.3
2022/12/24 15:10:00,55.2, 1.2
2022/12/24 15:20:00,54.9, 0.9
2022/12/24 15:30:00,54.6, 0.9
2022/12/24 15:40:00,54.4, 0.6
2022/12/24 15:50:00,54.4, 0.4
2022/12/24 16:00:00,53.9, 0.5
2022/12/24 16:10:00,53.7, 0.4
2022/12/24 16:20:00,53.3,-0.2
2022/12/24 16:30:00,53.2, 0.2
2022/12/24 16:40:00,52.7, 0.0
2022/12/24 16:50:00,52.7,-0.1
2022/12/24 17:00:00,52.7,-0.2
2022/12/24 17:10:00,52.7,-0.3
2022/12/24 17:20:00,52.7,-0.4
2022/12/24 17:30:00,52.5,-0.3
2022/12/24 17:40:00,52.5,-0.2
2022/12/24 17:50:00,52.0,-0.3
2022/12/24 18:00:00,52.0,-0.4
2022/12/24 18:10:00,51.9,-0.3
2022/12/24 18:20:00,52.2,-0.4
2022/12/24 18:30:00,52.0, 0.0
2022/12/24 18:40:00,51.6, 0.0
2022/12/24 18:50:00,51.5,-0.4
2022/12/24 19:00:00,51.4,-0.4
2022/12/24 19:10:00,51.3,-0.4
2022/12/24 19:20:00,51.5,-0.4
2022/12/24 19:30:00,51.4,-0.4
2022/12/24 19:40:00,51.2,-0.4
2022/12/24 19:50:00,50.9,-0.6
2022/12/24 20:00:00,50.6,-0.1
2022/12/24 20:10:00,50.5, 0.0
2022/12/24 20:20:00,50.4,-0.2
2022/12/24 20:30:00,50.1, 0.2
2022/12/24 20:40:00,50.0,-0.1
2022/12/24 20:50:00,49.8,-0.2
2022/12/24 21:00:00,49.4,-0.4
2022/12/24 21:10:00,49.0,-0.5
2022/12/24 21:20:00,49.2,-0.2
2022/12/24 21:30:00,49.2, 0.3
2022/12/24 21:40:00,49.1,-0.4
2022/12/24 21:50:00,48.9,-0.4
2022/12/24 22:00:00,48.9,-0.3
2022/12/24 22:10:00,48.6,-0.4
2022/12/24 22:20:00,48.6,-0.4
2022/12/24 22:30:00,48.6,-0.4
2022/12/24 22:40:00,48.4,-0.5
2022/12/24 22:50:00,48.1,-0.5
2022/12/24 23:00:00,48.2,-0.5
2022/12/24 23:10:00,48.0,-0.4
2022/12/24 23:20:00,48.0,-0.4
2022/12/24 23:30:00,47.9,-0.1
2022/12/24 23:40:00,47.6,-0.3
2022/12/24 23:50:00,47.5,-0.3
